Corvallis, OR

12:41 AM PDT on September 30, 2016 (GMT -0700)
Corvallis Municipal

Weather History for KCVO - August, 2014

Change the Weather History Date:

Tuesday, August 26, 2014

  Actual Average Record
Temperature  
Mean Temperature 76 °F -  
Max Temperature 96 °F 81 °F 98 °F (2016)
Min Temperature 55 °F 53 °F 46 °F (2015)
Cooling Degree Days 10    
Growing Degree Days 26 (Base 50)    
Moisture  
Dew Point 52 °F    
Average Humidity 49    
Maximum Humidity 88    
Minimum Humidity 20    
Precipitation  
Precipitation 0.00 in - - ()
Sea Level Pressure  
Sea Level Pressure 29.99 in    
Wind  
Wind Speed 5 mph (NNW)    
Max Wind Speed 16 mph    
Max Gust Speed 23 mph    
Visibility 10 miles    
Events      
Averages and records for this station are not official NWS values.
T = Trace of Precipitation, MM = Missing Value Source: NWS Daily Summary

Daily Weather History Graph

Daily Weather History Graph

Search for Another Location

Airport or City:

Trip Planner

Search our weather history database for the weather conditions in past years. The results will help you decide how hot, cold, wet, or windy it might be!

Date:

Astronomy

Aug. 26, 2014 Rise Set
Actual Time 6:28 AM PDT 8:00 PM PDT
Civil Twilight 5:58 AM PDT 8:30 PM PDT
Nautical Twilight 5:21 AM PDT 9:07 PM PDT
Astronomical Twilight 4:41 AM PDT 9:46 PM PDT
Moon 7:39 AM PDT (8/26) 8:18 PM PDT (8/26)
Length of Visible Light 14h 32m
Length of Day
13h 31m
New Moon, 1% of the Moon is Illuminated
Aug 26
New Moon
Sep 2
First Quarter
Sep 8
Full
Sep 15
Last Quarter
Sep 23
New

Hourly Weather History & Observations

Time (PDT) Temp. Heat Index Dew Point Humidity Pressure Visibility Wind Dir Wind Speed Gust Speed Precip Events Conditions
12:15 AM 66.2 °F - 51.8 °F 60% 29.96 in 10.0 mi WNW 6.9 mph - N/A   Clear
12:35 AM 66.2 °F - 53.6 °F 64% 29.96 in 10.0 mi WNW 8.1 mph - N/A   Clear
12:55 AM 66.2 °F - 53.6 °F 64% 29.96 in 10.0 mi WNW 6.9 mph - N/A   Clear
1:15 AM 66.2 °F - 51.8 °F 60% 29.97 in 10.0 mi WNW 6.9 mph - N/A   Clear
1:35 AM 64.4 °F - 51.8 °F 64% 29.97 in 10.0 mi WNW 5.8 mph - N/A   Clear
1:55 AM 62.6 °F - 51.8 °F 68% 29.97 in 10.0 mi WNW 4.6 mph - N/A   Clear
2:15 AM 64.4 °F - 51.8 °F 64% 29.97 in 10.0 mi WNW 3.5 mph - N/A   Clear
2:35 AM 62.6 °F - 51.8 °F 68% 29.98 in 10.0 mi West 3.5 mph - N/A   Clear
2:55 AM 62.6 °F - 51.8 °F 68% 29.98 in 10.0 mi Calm Calm - N/A   Clear
3:15 AM 62.6 °F - 51.8 °F 68% 29.98 in 10.0 mi Calm Calm - N/A   Clear
3:35 AM 60.8 °F - 51.8 °F 72% 29.98 in 10.0 mi WNW 4.6 mph - N/A   Clear
3:55 AM 60.8 °F - 51.8 °F 72% 29.98 in 10.0 mi Calm Calm - N/A   Clear
4:15 AM 59.0 °F - 51.8 °F 77% 29.99 in 10.0 mi Calm Calm - N/A   Clear
4:35 AM 57.2 °F - 50.0 °F 77% 29.99 in 10.0 mi Calm Calm - N/A   Clear
4:55 AM 57.2 °F - 50.0 °F 77% 29.99 in 10.0 mi Calm Calm - N/A   Clear
5:15 AM 57.2 °F - 50.0 °F 77% 29.99 in 10.0 mi WNW 3.5 mph - N/A   Clear
5:35 AM 57.2 °F - 50.0 °F 77% 29.99 in 10.0 mi Calm Calm - N/A   Clear
5:55 AM 55.4 °F - 50.0 °F 82% 30.00 in 10.0 mi Calm Calm - N/A   Clear
6:15 AM 55.4 °F - 51.8 °F 88% 30.00 in 10.0 mi Calm Calm - N/A   Clear
6:35 AM 55.4 °F - 50.0 °F 82% 30.01 in 10.0 mi Calm Calm - N/A   Clear
6:55 AM 55.4 °F - 51.8 °F 88% 30.01 in 10.0 mi Calm Calm - N/A   Clear
7:15 AM 55.4 °F - 51.8 °F 88% 30.02 in 10.0 mi Calm Calm - N/A   Clear
7:35 AM 59.0 °F - 51.8 °F 77% 30.02 in 10.0 mi Calm Calm - N/A   Clear
7:55 AM 62.6 °F - 53.6 °F 72% 30.03 in 10.0 mi Calm Calm - N/A   Clear
8:15 AM 64.4 °F - 53.6 °F 68% 30.03 in 10.0 mi Calm Calm - N/A   Clear
8:35 AM 66.2 °F - 53.6 °F 64% 30.04 in 10.0 mi Calm Calm - N/A   Clear
8:55 AM 69.8 °F - 53.6 °F 56% 30.04 in 10.0 mi Calm Calm - N/A   Clear
9:15 AM 71.6 °F - 55.4 °F 57% 30.04 in 10.0 mi NE 3.5 mph - N/A   Clear
9:35 AM 73.4 °F - 53.6 °F 50% 30.04 in 10.0 mi ENE 4.6 mph - N/A   Clear
9:55 AM 75.2 °F - 55.4 °F 50% 30.04 in 10.0 mi ENE 4.6 mph - N/A   Clear
10:15 AM 78.8 °F - 55.4 °F 44% 30.04 in - Calm Calm - N/A   Clear
10:35 AM 78.8 °F - 53.6 °F 42% 30.04 in 10.0 mi NNE 4.6 mph - N/A   Clear
10:55 AM 78.8 °F - 53.6 °F 42% 30.03 in 10.0 mi North 5.8 mph - N/A   Clear
11:15 AM 80.6 °F 80.5 °F 55.4 °F 42% 30.03 in 10.0 mi Calm Calm - N/A   Clear
11:35 AM 82.4 °F 81.7 °F 55.4 °F 39% 30.03 in 8.0 mi East 3.5 mph - N/A   Clear
11:55 AM 84.2 °F 82.8 °F 53.6 °F 35% 30.03 in 9.0 mi Calm Calm - N/A   Clear
12:15 PM 86.0 °F 84.2 °F 53.6 °F 33% 30.02 in 8.0 mi East 3.5 mph - N/A   Clear
12:35 PM 84.2 °F 82.8 °F 53.6 °F 35% 30.01 in 8.0 mi Calm Calm - N/A   Clear
12:55 PM 87.8 °F 85.7 °F 53.6 °F 31% 30.01 in 10.0 mi Calm Calm - N/A   Clear
1:15 PM 89.6 °F 87.3 °F 53.6 °F 29% 30.00 in 4.0 mi ENE 4.6 mph - N/A   Clear
1:35 PM 89.6 °F 87.3 °F 53.6 °F 29% 30.00 in 10.0 mi Calm Calm - N/A   Clear
2:15 PM 91.4 °F - 51.8 °F 26% 29.99 in 10.0 mi NNE 3.5 mph - N/A   Clear
2:35 PM 93.2 °F - 51.8 °F 24% 29.98 in 8.0 mi NE 5.8 mph - N/A   Clear
2:55 PM 93.2 °F - 51.8 °F 24% 29.97 in 10.0 mi NE 4.6 mph - N/A   Clear
3:15 PM 93.2 °F - 51.8 °F 24% 29.97 in 10.0 mi NNE 4.6 mph - N/A   Clear
3:35 PM 95.0 °F - 51.8 °F 23% 29.96 in 10.0 mi North 6.9 mph - N/A   Clear
3:55 PM 93.2 °F - 50.0 °F 23% 29.96 in 10.0 mi North 5.8 mph - N/A   Clear
4:15 PM 96.8 °F - 50.0 °F 20% 29.95 in 10.0 mi NE 9.2 mph - N/A   Clear
4:35 PM 96.8 °F - 50.0 °F 20% 29.94 in 10.0 mi NW 9.2 mph 20.7 mph N/A   Clear
4:55 PM 95.0 °F - 50.0 °F 22% 29.94 in 10.0 mi North 6.9 mph - N/A   Clear
5:15 PM 93.2 °F 90.8 °F 53.6 °F 26% 29.94 in 10.0 mi NW 13.8 mph - N/A   Clear
5:35 PM 93.2 °F - 51.8 °F 24% 29.94 in 5.0 mi WNW 16.1 mph 23.0 mph N/A   Clear
5:55 PM 91.4 °F - 50.0 °F 24% 29.94 in 10.0 mi NW 13.8 mph - N/A   Clear
6:15 PM 89.6 °F - 48.2 °F 24% 29.94 in 9.0 mi WNW 15.0 mph - N/A   Clear
6:35 PM 89.6 °F - 48.2 °F 24% 29.94 in 10.0 mi NW 12.7 mph - N/A   Clear
6:55 PM 87.8 °F - 51.8 °F 29% 29.94 in 10.0 mi NW 13.8 mph - N/A   Clear
7:15 PM 84.2 °F - 51.8 °F 33% 29.94 in 10.0 mi NW 11.5 mph - N/A   Clear
7:35 PM 82.4 °F - 51.8 °F 35% 29.94 in 10.0 mi WNW 13.8 mph - N/A   Clear
7:55 PM 82.4 °F - 51.8 °F 35% 29.95 in 10.0 mi WNW 12.7 mph - N/A   Clear
8:15 PM 80.6 °F - 50.0 °F 34% 29.95 in 10.0 mi WNW 11.5 mph - N/A   Clear
8:35 PM 78.8 °F - 50.0 °F 36% 29.96 in 10.0 mi WNW 9.2 mph - N/A   Clear
8:55 PM 77.0 °F - 50.0 °F 39% 29.96 in 10.0 mi WNW 12.7 mph - N/A   Clear
9:35 PM 75.2 °F - 50.0 °F 41% 29.97 in 10.0 mi WNW 15.0 mph - N/A   Clear
10:15 PM 73.4 °F - 50.0 °F 44% 29.97 in 10.0 mi NW 10.4 mph - N/A   Clear
10:35 PM 73.4 °F - 50.0 °F 44% 29.98 in 10.0 mi WNW 15.0 mph - N/A   Clear
10:55 PM 71.6 °F - 50.0 °F 46% 29.98 in 10.0 mi WNW 12.7 mph - N/A   Clear
11:15 PM 69.8 °F - 50.0 °F 49% 29.98 in 10.0 mi WNW 12.7 mph - N/A   Clear
11:35 PM 69.8 °F - 50.0 °F 49% 29.98 in 10.0 mi WNW 11.5 mph - N/A   Clear
11:55 PM 69.8 °F - 50.0 °F 49% 29.98 in 10.0 mi WNW 12.7 mph - N/A   Clear